TimeCDT,TemperatureF,Dew PointF,Humidity,Sea Level PressureIn,VisibilityMPH,Wind Direction,Wind SpeedMPH,Gust SpeedMPH,PrecipitationIn,Events,Conditions,WindDirDegrees,DateUTC
12:53 AM,79.0,73.9,84,30.01,10.0,ENE,3.5,-,N/A,,Clear,70,2013-08-29 05:53:00
1:53 AM,78.1,73.9,87,30.01,10.0,East,3.5,-,N/A,,Clear,80,2013-08-29 06:53:00
2:53 AM,75.9,72.0,87,30.01,10.0,NE,4.6,-,N/A,,Clear,50,2013-08-29 07:53:00
3:53 AM,75.0,72.0,90,30.02,10.0,ENE,4.6,-,N/A,,Clear,70,2013-08-29 08:53:00
4:53 AM,75.9,72.0,87,30.02,10.0,NE,5.8,-,N/A,,Clear,50,2013-08-29 09:53:00
5:53 AM,75.0,71.1,87,30.03,10.0,ENE,3.5,-,N/A,,Clear,70,2013-08-29 10:53:00
6:53 AM,73.9,71.1,91,30.04,10.0,ENE,3.5,-,N/A,,Clear,60,2013-08-29 11:53:00
7:53 AM,75.9,72.0,87,30.06,10.0,ENE,5.8,-,N/A,,Clear,60,2013-08-29 12:53:00
8:53 AM,80.1,72.0,76,30.06,10.0,ENE,4.6,-,N/A,,Clear,70,2013-08-29 13:53:00
9:53 AM,84.0,70.0,63,30.06,10.0,NE,3.5,-,N/A,,Clear,40,2013-08-29 14:53:00
10:53 AM,88.0,71.1,57,30.06,10.0,Calm,Calm,-,N/A,,Clear,0,2013-08-29 15:53:00
11:53 AM,91.9,72.0,52,30.05,10.0,Calm,Calm,-,N/A,,Clear,0,2013-08-29 16:53:00
12:53 PM,93.0,69.1,45,30.03,10.0,Variable,4.6,-,N/A,,Scattered Clouds,0,2013-08-29 17:53:00
1:53 PM,95.0,70.0,44,30.01,10.0,Variable,4.6,-,N/A,,Partly Cloudy,0,2013-08-29 18:53:00
2:53 PM,97.0,66.9,37,29.99,10.0,West,6.9,-,N/A,,Clear,260,2013-08-29 19:53:00
3:53 PM,97.0,68.0,39,29.97,10.0,Calm,Calm,-,N/A,,Clear,0,2013-08-29 20:53:00
4:53 PM,96.1,69.1,41,29.96,10.0,SW,4.6,-,N/A,,Partly Cloudy,230,2013-08-29 21:53:00
5:53 PM,96.1,68.0,40,29.95,10.0,SSW,4.6,-,N/A,,Clear,210,2013-08-29 22:53:00
6:53 PM,93.9,70.0,46,29.95,10.0,Calm,Calm,-,N/A,,Clear,0,2013-08-29 23:53:00
7:53 PM,90.0,69.1,50,29.96,10.0,Calm,Calm,-,N/A,,Clear,0,2013-08-30 00:53:00
8:53 PM,86.0,72.0,63,29.96,10.0,Calm,Calm,-,N/A,,Clear,0,2013-08-30 01:53:00
9:53 PM,84.0,72.0,67,29.97,10.0,Calm,Calm,-,N/A,,Clear,0,2013-08-30 02:53:00
10:53 PM,81.0,72.0,74,29.97,10.0,ENE,3.5,-,N/A,,Clear,70,2013-08-30 03:53:00
11:53 PM,82.0,73.9,76,29.96,10.0,Calm,Calm,-,N/A,,Clear,0,2013-08-30 04:53:00